THOR ABLESTAR DEB, 147

Orbit data source: Space-Track

THOR ABLESTAR DEB, 147 is space debris in LEO originally from a launch on Thu, 29 Jun 1961 UTC launched from the Air Force Eastern Test Range (AFETR). Debris objects in space refer to the collection of defunct objects orbiting the Earth. Examples of debris include non-operational satellites, rocket bodies, and fragments generated from explosions, collisions, or faulty payload assembly.

Loading next visibility...
Identifier
147, 1961-015AH
Orbit
LEO
Country
Flag of USUS
Related business
Manufacturer
Unknown
Mission
Spacecraft
Bus & Motor
Unknown
Mass
Unknown
Launch date (UTC)
1961-06-29 (64 years ago)
Launch vehicle
Unknown
Launch site
Air Force Eastern Test Range (AFETR)
Object type
Payload
Rocket body
Debris
Shape & HBR
Unknown
Radar Cross Section
Medium (>0.1 m² and <1 m²)

Expand to show TLE details & history
Last TLE update: 9 hours ago

TLE from 9 hours ago
0 THOR ABLESTAR DEB
1 00147U 61015AH  25241.83818744  .00001132  00000-0  52441-3 0  9998
2 00147  66.6176  37.7518 0059630 278.9855  80.4493 14.23532931292985
Epoch: 2025-08-29T20:06Z
TLE epoch observation values (Epoch: 2025-08-29T20:06:59.394Z)
Latitude
-0.00003°
Longitude
117.72322°
Altitude
808.657 km
Speed
7.453 km/s
True Right ascension
02h 31m 00s
True Declination
0° 00' 00"
Sunlit
Object was in full shadow at epoch
Visualization orbit readout
Latitude
Unknown
Longitude
Unknown
Altitude
Unknown
Speed
Unknown
Apparent Right ascension
Unknown
Apparent Declination
Unknown
Sunlit
N/A
Visualization observer readout
Local Sidereal Time
20:53:53
Azimuth
Unknown
Elevation
Unknown
Doppler factor
Unknown
Orbital elements
Apogee altitude
854.693 km
Perigee altitude
768.945 km
Semi-major axis
7,189.956 km
Eccentricity
0.00596
Inclination
66.6176°
RAAN
37.7518°
Arg. of periapsis
278.9855°
True anomaly
81.12396°
Mean anomaly
80.4493°
Eccentric anomaly
80.78655°
Mean motion
3.56003 °/min
Orbital period
101.12 mins
BSTAR
0.00052441
Loading maneuver chart data...
Computing Atmospheric mass density...

Documentation

Showing up to 5 results
|